Wetbulb
77.02 76.29 77.27 77.36 76.63 77.63 77.56 76.32 76.83 76.45 76.03 75.16 75.25 74.57 73.43 73.84 74.00 73.64 73.95 75.01 73.31 73.92 75.58 75.70 75.35 75.73 75.32 74.90 75.34 74.85 74.55 73.65 73.13 73.16 73.44 73.79 73.89 73.44 73.01 72.88 72.85 73.47 73.35
78.19 76.45 76.40 75.99 76.28 76.95 77.44 76.90 76.42 75.69 75.39 75.28 74.51 73.70 72.69 72.10 72.27 73.03 72.80 74.08 73.88 73.40 74.43 75.75 75.70 76.00 75.68 75.44 74.58 75.51 75.22 74.72 75.14 73.96 74.58 75.32 74.96 74.84 73.48 72.88 72.87 73.13 73.22
77.53 76.98 76.86 75.61 75.94 77.75 77.25 76.88 76.42 75.86 74.54 74.69 73.37 72.91 71.91 71.69 71.32 72.07 72.38 72.17 73.85 74.72 74.37 74.37 75.63 76.63 76.75 75.67 75.44 75.19 75.42 75.98 76.00 75.64 75.27 75.23 75.11 74.88 74.98 74.73 74.53 74.30 74.69
77.90 77.49 75.94 75.93 76.15 76.34 76.46 75.46 75.56 74.25 73.49 72.14 70.67 70.53 70.78 71.61 72.22 72.00 72.08 72.88 72.59 71.41 75.17 75.06 74.17 75.12 75.88 75.36 75.60 75.49 75.81 75.31 75.60 75.76 75.58 75.36 75.44 75.32 75.33 75.30 75.20 75.08 74.95
77.77 77.10 76.22 76.85 76.93 76.69 75.84 75.68 74.29 73.76 70.52 69.76 68.91 69.26 71.93 71.96 72.54 71.62 73.02 74.20 74.13 73.78 72.43 75.10 73.28 73.31 74.51 75.48 75.97 75.80 75.76 75.38 75.29 74.99 75.72 75.75 75.60 75.03 74.98 75.05 75.21 75.21 75.10
77.38 76.86 76.52 76.28 76.15 76.11 75.34 74.70 73.39 72.66 70.93 69.84 68.62 69.71 71.84 73.47 73.21 73.56 72.74 72.42 72.39 74.17 74.53 75.30 74.86 75.11 73.51 73.31 74.67 76.13 76.23 75.80 75.47 75.22 74.97 75.00 75.18 75.36 75.21 75.13 74.95 75.15 75.03
77.73 77.61 76.26 76.08 76.22 74.98 74.64 74.33 71.95 70.37 68.53 71.79 69.13 69.36 70.35 71.41 72.44 72.87 72.64 70.04 69.98 71.35 73.12 74.51 74.52 74.92 75.07 73.52 73.36 73.60 73.88 74.32 75.52 75.78 75.40 74.78 74.63 74.88 74.88 74.57 74.92 75.12 75.09
77.96 77.22 76.89 76.10 76.05 74.51 74.09 72.48 71.51 69.25 69.87 71.96 68.01 67.51 65.22 67.66 69.42 71.20 70.92 68.31 67.99 69.26 70.12 71.67 72.82 73.93 74.27 73.75 73.27 71.65 71.57 72.22 72.94 73.68 74.37 75.18 75.06 74.71 74.63 74.22 74.21 74.46 74.93
78.02 77.67 77.21 75.99 75.34 73.01 69.91 71.84 71.66 70.37 68.16 71.30 70.76 67.21 64.03 63.75 65.66 68.86 69.55 67.40 67.60 67.14 68.09 68.86 70.14 69.94 70.03 70.33 71.30 70.20 67.91 68.06 68.88 69.98 71.85 72.72 73.56 74.13 74.90 74.55 74.24 74.10 74.25
77.01 76.63 76.54 75.58 73.39 71.43 72.11 71.95 72.00 71.42 70.80 68.76 69.58 70.51 70.20 68.82 63.72 63.96 66.55 66.72 67.26 66.14 66.44 67.07 67.18 67.52 67.57 67.76 68.10 66.67 65.64 65.61 65.77 66.35 66.78 67.93 69.39 71.31 73.41 74.28 74.39 74.41 74.30
76.21 75.18 76.02 73.78 72.67 71.34 72.70 73.17 71.94 71.49 70.83 68.55 68.73 69.36 69.36 68.72 68.88 63.66 61.49 65.19 66.49 66.77 67.71 67.75 67.58 67.54 66.88 67.41 67.59 66.26 65.10 64.51 64.63 64.68 64.85 65.32 66.50 67.73 69.46 71.92 74.01 74.26 74.50
74.79 75.58 75.61 73.54 73.19 72.29 72.50 72.29 71.85 71.22 70.92 70.54 69.55 69.84 67.21 65.55 65.51 64.02 62.33 64.03 64.14 66.41 66.98 67.92 67.32 67.66 67.91 68.12 65.16 63.79 63.89 63.74 63.50 63.44 63.74 64.62 65.06 65.88 67.16 68.17 70.20 72.34 73.95
72.18 74.25 75.43 72.90 71.83 73.51 73.14 72.41 71.58 71.00 70.83 69.79 70.16 68.24 68.91 67.07 67.42 65.74 64.27 62.96 62.52 64.98 66.12 67.21 67.82 66.49 66.60 66.88 67.29 64.28 67.11 65.09 64.45 64.13 63.49 63.60 63.99 64.40 65.16 65.86 66.89 68.66 70.96
71.88 74.02 74.48 72.74 72.44 72.80 72.83 71.48 70.19 69.97 70.71 69.71 70.21 70.13 67.75 67.38 67.17 66.65 65.02 63.90 62.07 63.05 64.99 66.27 67.65 66.19 66.31 66.40 67.17 65.41 67.41 65.26 64.46 63.67 63.65 63.98 63.25 63.48 64.18 64.61 65.05 65.28 66.23
72.24 73.79 73.28 72.42 72.03 72.73 71.45 71.34 69.54 70.28 70.38 70.33 69.67 69.96 68.94 67.06 67.11 67.16 67.00 66.74 64.03 60.42 61.16 64.46 64.03 67.20 66.56 66.63 67.75 67.44 67.82 66.83 64.34 63.86 63.61 63.17 63.22 63.10 63.28 63.64 64.08 64.22 64.43
73.92 73.32 72.81 71.33 71.91 71.64 70.84 71.25 70.15 70.50 70.15 68.43 67.63 68.83 69.16 67.73 67.83 67.70 67.57 67.49 66.57 64.09 61.00 63.82 63.97 65.99 67.20 67.13 68.10 67.75 67.79 66.98 65.93 64.76 63.77 62.85 62.79 63.22 63.59 63.67 64.07 64.14 64.15
74.00 73.03 72.60 71.33 71.48 70.25 70.58 70.73 70.29 69.22 69.03 69.14 68.77 69.07 69.48 70.38 67.86 66.99 66.84 66.37 65.41 64.89 62.18 63.29 64.63 67.10 67.71 67.73 67.83 68.32 68.10 67.60 67.10 64.97 64.04 63.07 62.46 62.44 62.61 62.52 62.63 62.92 62.96
73.33 73.13 72.31 71.55 70.59 70.24 70.18 70.13 68.90 68.21 67.95 67.57 68.23 68.90 68.92 68.31 69.26 69.34 67.33 67.92 66.45 66.48 63.79 63.38 65.33 64.66 67.53 68.65 67.15 67.54 66.77 66.57 66.57 65.48 63.67 62.55 61.78 61.14 60.94 60.96 60.87 60.96 61.04
71.37 71.21 71.03 69.74 69.90 69.89 69.58 69.95 70.06 69.27 68.54 68.29 68.81 68.65 68.64 68.93 68.35 67.42 67.78 66.36 65.46 65.18 65.51 63.28 63.03 64.82 64.66 65.14 65.96 67.88 66.58 67.47 65.85 65.22 62.97 62.27 61.58 61.12 60.29 59.61 59.36 58.94 58.35
70.25 68.20 70.08 69.29 69.32 69.94 69.86 69.33 69.37 69.39 68.48 68.36 69.04 69.27 69.14 68.94 67.98 68.15 67.15 67.57 67.08 65.45 65.77 63.18 62.86 62.57 63.21 65.64 64.46 62.84 62.10 63.50 62.94 64.53 64.70 63.00 62.65 62.70 61.90 60.05 59.62 59.34 57.44
70.14 68.86 67.56 67.97 68.47 68.95 68.10 69.91 69.18 68.05 68.00 68.41 69.10 69.26 69.48 69.50 67.25 66.59 66.16 67.56 66.89 64.25 63.00 61.89 61.44 60.91 61.12 60.70 62.42 62.19 61.23 62.04 63.95 63.91 62.73 62.40 62.63 63.82 64.27 62.37 63.12 62.68 60.19
69.38 66.96 65.48 64.65 65.48 66.97 63.82 63.21 66.90 67.90 68.30 68.65 68.53 69.27 69.62 66.82 66.48 63.42 62.83 62.38 63.32 64.02 63.21 61.46 60.58 61.10 62.90 62.59 62.55 61.36 60.86 59.29 57.86 62.70 61.83 61.29 63.41 62.50 63.27 63.64 62.24 60.80 59.33
69.00 66.33 64.79 64.96 65.85 66.95 61.72 61.39 63.26 66.90 67.78 68.54 69.20 69.82 68.61 66.68 66.86 67.59 64.05 61.89 61.35 60.59 60.78 63.28 62.17 62.48 62.03 62.81 62.90 61.20 60.41 59.07 58.30 60.72 61.13 59.27 62.18 61.18 62.97 63.33 60.66 59.78 58.55
68.20 68.35 67.13 67.05 66.98 66.74 61.50 60.17 62.38 67.34 67.92 69.02 69.50 69.51 68.68 67.20 68.50 67.22 66.65 65.30 64.66 65.59 65.28 64.09 64.20 63.65 63.42 62.75 61.18 60.08 59.71 59.37 58.38 59.71 62.54 58.49 61.09 60.18 62.65 62.95 60.48 59.08 57.94
67.83 66.86 67.01 68.24 67.84 67.93 58.96 58.21 61.37 67.57 67.40 68.27 68.73 67.56 67.10 66.25 62.21 59.29 63.71 63.38 63.86 64.12 61.29 58.31 57.16 56.51 56.03 56.09 57.05 58.72 57.73 56.04 54.95 56.41 60.97 59.32 58.97 59.16 59.91 59.55 59.89 58.70 57.15
66.88 66.18 68.01 68.27 65.70 67.38 58.97 56.34 59.15 65.91 67.55 64.34 65.84 68.51 60.10 61.29 57.50 55.75 60.80 62.03 61.50 62.46 63.00 62.40 61.92 60.57 58.78 60.68 58.00 59.95 58.22 56.21 56.82 55.91 59.78 58.31 58.28 56.64 52.32 56.36 57.99 60.92 59.66
MSLP
1018.27 1018.39 1018.47 1018.37 1018.45 1017.99 1017.73 1018.09 1018.03 1018.02 1018.02 1017.84 1017.73 1017.68 1017.42 1017.42 1017.62 1017.16 1017.05 1017.63 1018.06 1018.16 1018.18 1018.30 1018.57 1018.77 1019.09 1019.40 1019.62 1019.81 1020.08 1020.39 1020.78 1021.00 1021.16 1021.35 1021.63 1021.73 1021.85 1021.96 1022.01 1022.05 1022.16
1018.23 1017.95 1018.17 1018.18 1018.24 1018.32 1017.87 1018.20 1018.14 1017.93 1017.70 1017.56 1017.53 1017.70 1017.57 1017.25 1017.29 1017.50 1017.09 1017.06 1017.83 1018.10 1018.14 1018.17 1018.27 1018.49 1018.73 1019.13 1019.46 1019.67 1019.89 1020.13 1020.36 1020.64 1020.89 1021.12 1021.32 1021.50 1021.65 1021.73 1021.80 1021.88 1021.93
1018.21 1018.21 1017.89 1018.09 1018.11 1018.02 1018.31 1017.96 1018.12 1018.03 1017.71 1017.35 1017.44 1017.41 1017.41 1017.19 1016.91 1017.14 1017.09 1016.89 1016.91 1017.64 1017.92 1018.02 1018.10 1018.30 1018.44 1018.71 1019.10 1019.47 1019.68 1019.92 1020.14 1020.32 1020.50 1020.78 1021.04 1021.22 1021.35 1021.41 1021.45 1021.54 1021.62
1017.95 1017.86 1017.84 1017.69 1017.71 1017.89 1018.14 1017.98 1017.96 1017.48 1017.30 1017.32 1017.29 1017.23 1017.12 1017.05 1017.05 1017.10 1016.86 1016.97 1016.73 1016.71 1017.22 1017.55 1017.92 1018.04 1018.18 1018.40 1018.67 1018.91 1019.25 1019.58 1019.79 1019.97 1020.15 1020.37 1020.61 1020.82 1020.99 1021.09 1021.14 1021.17 1021.22
1017.43 1017.60 1017.53 1017.82 1017.90 1017.93 1017.83 1017.95 1017.50 1017.78 1017.40 1017.30 1017.13 1016.89 1016.84 1016.88 1016.90 1016.44 1016.76 1016.80 1016.84 1016.80 1016.50 1017.32 1017.68 1017.92 1017.91 1017.98 1018.19 1018.40 1018.83 1019.08 1019.38 1019.65 1019.84 1020.01 1020.16 1020.37 1020.58 1020.67 1020.76 1020.83 1020.81
1017.24 1017.57 1017.58 1017.61 1017.79 1018.08 1017.79 1017.58 1018.07 1017.68 1017.90 1017.59 1017.24 1016.79 1016.86 1016.90 1016.79 1016.70 1016.58 1016.44 1016.86 1016.60 1016.52 1016.91 1016.73 1017.05 1017.89 1017.94 1017.86 1018.14 1018.33 1018.51 1018.78 1019.14 1019.32 1019.56 1019.77 1019.88 1020.09 1020.24 1020.35 1020.42 1020.47
1016.79 1017.08 1017.06 1017.36 1017.67 1017.41 1017.49 1017.87 1017.88 1017.69 1017.37 1017.37 1017.02 1016.36 1016.53 1016.94 1016.80 1016.82 1016.64 1016.86 1017.10 1016.73 1016.88 1017.00 1016.63 1016.83 1017.39 1017.81 1018.31 1018.35 1018.38 1018.26 1018.45 1018.51 1018.87 1019.02 1019.15 1019.34 1019.54 1019.74 1019.89 1019.97 1020.02
1016.68 1016.77 1016.87 1016.95 1017.14 1017.06 1017.80 1018.00 1018.13 1017.55 1017.31 1017.47 1017.05 1016.72 1015.94 1016.17 1016.33 1016.50 1016.95 1017.16 1017.44 1017.02 1017.09 1017.18 1017.42 1017.72 1017.46 1017.54 1018.35 1018.57 1018.63 1018.57 1018.53 1018.54 1018.49 1018.47 1018.57 1018.75 1018.92 1019.09 1019.27 1019.49 1019.55
1016.28 1016.66 1016.79 1016.72 1017.31 1017.62 1017.22 1017.91 1017.94 1018.04 1017.14 1017.43 1017.91 1017.29 1016.20 1015.59 1016.23 1016.41 1017.01 1017.13 1017.46 1017.28 1017.29 1017.45 1017.61 1017.92 1018.05 1017.96 1018.05 1018.57 1019.00 1018.88 1018.73 1018.69 1018.57 1018.44 1018.33 1018.31 1018.35 1018.44 1018.57 1018.77 1018.91
1015.98 1016.39 1016.68 1016.96 1017.37 1017.01 1017.38 1017.59 1017.81 1017.89 1017.96 1017.27 1017.44 1017.74 1017.84 1017.68 1016.47 1015.85 1016.48 1017.04 1017.29 1017.26 1017.72 1017.27 1017.43 1017.94 1018.05 1017.78 1018.73 1019.23 1019.22 1019.12 1018.93 1018.77 1018.70 1018.55 1018.40 1018.23 1018.00 1017.99 1017.98 1018.08 1018.19
1015.88 1016.08 1016.50 1016.93 1017.24 1017.24 1017.57 1017.70 1017.81 1018.06 1017.79 1017.62 1017.40 1017.34 1017.79 1017.54 1017.77 1017.05 1016.26 1016.48 1016.85 1017.16 1017.34 1017.36 1017.47 1017.38 1018.04 1018.12 1017.99 1018.84 1018.99 1019.03 1019.03 1018.85 1018.57 1018.43 1018.32 1018.18 1017.99 1017.75 1017.47 1017.42 1017.52
1015.48 1015.95 1016.36 1016.71 1016.94 1016.97 1017.40 1017.59 1017.91 1018.11 1018.15 1018.10 1017.71 1017.75 1017.36 1017.34 1017.11 1017.06 1016.75 1016.72 1016.88 1016.86 1017.16 1017.18 1017.32 1017.33 1017.45 1017.69 1018.14 1018.64 1018.70 1018.65 1018.51 1018.42 1018.43 1018.32 1018.09 1017.85 1017.72 1017.59 1017.36 1017.08 1016.87
1014.69 1015.40 1016.15 1016.47 1016.62 1016.95 1017.13 1017.55 1017.97 1018.02 1018.27 1018.08 1018.28 1017.64 1017.74 1017.50 1017.50 1017.46 1017.25 1016.73 1016.54 1016.55 1016.87 1017.06 1017.11 1017.35 1017.41 1017.38 1017.42 1018.25 1018.20 1018.44 1018.40 1018.29 1018.22 1017.98 1017.81 1017.63 1017.35 1017.21 1017.13 1016.96 1016.71
1014.35 1014.87 1015.82 1016.02 1016.30 1016.57 1016.97 1017.38 1017.72 1017.93 1017.96 1018.22 1018.25 1018.15 1017.59 1017.54 1017.66 1017.38 1017.29 1017.09 1016.49 1016.05 1015.74 1016.36 1016.56 1016.90 1017.00 1017.14 1017.39 1018.01 1017.39 1017.65 1017.84 1017.93 1017.80 1017.71 1017.63 1017.40 1017.15 1016.87 1016.69 1016.60 1016.48
1014.05 1014.70 1015.19 1015.83 1016.14 1016.34 1016.78 1017.22 1017.21 1017.50 1017.82 1018.00 1018.01 1018.11 1017.90 1017.20 1016.95 1017.14 1016.98 1017.23 1016.84 1016.16 1015.68 1015.46 1015.81 1016.43 1016.93 1016.79 1016.82 1017.14 1016.93 1016.85 1017.17 1017.22 1017.22 1017.08 1016.99 1016.90 1016.81 1016.55 1016.23 1016.04 1015.92
1013.73 1014.48 1015.18 1015.02 1015.67 1016.30 1016.60 1016.99 1017.03 1017.17 1017.51 1017.50 1017.44 1017.59 1017.83 1017.26 1017.05 1016.94 1017.11 1016.94 1017.05 1016.58 1016.03 1015.65 1015.58 1015.79 1016.04 1016.62 1016.80 1016.79 1016.55 1016.52 1016.23 1016.16 1016.26 1016.22 1016.18 1016.10 1016.01 1015.90 1015.65 1015.41 1015.20
1013.72 1013.98 1014.63 1015.40 1015.17 1015.97 1016.65 1016.81 1016.80 1016.77 1017.01 1017.26 1017.49 1017.47 1017.61 1017.67 1017.18 1016.71 1016.60 1016.65 1016.48 1016.54 1016.24 1015.51 1015.52 1015.53 1015.66 1015.95 1015.96 1016.08 1015.97 1015.69 1015.20 1015.03 1015.11 1015.33 1015.37 1015.34 1015.19 1015.01 1014.84 1014.65 1014.46
1012.59 1014.56 1014.95 1015.44 1015.76 1015.70 1016.13 1016.37 1016.46 1016.29 1016.61 1016.75 1016.98 1017.15 1017.06 1016.89 1016.89 1017.06 1016.80 1016.63 1016.36 1016.71 1016.47 1016.10 1015.73 1015.63 1015.30 1015.23 1015.15 1015.09 1014.96 1014.77 1014.53 1014.25 1014.51 1014.51 1014.30 1014.19 1014.04 1013.97 1013.87 1013.68 1013.52
1013.08 1013.11 1013.60 1014.63 1015.59 1015.60 1015.95 1016.16 1016.22 1016.14 1016.22 1016.34 1016.44 1016.54 1016.48 1016.67 1016.67 1016.42 1016.55 1016.35 1015.89 1015.81 1015.76 1015.59 1015.35 1014.95 1014.66 1014.53 1014.15 1014.01 1013.89 1013.69 1013.60 1013.13 1013.08 1012.97 1012.90 1012.92 1012.82 1012.70 1012.51 1012.31 1012.23
1012.38 1013.09 1014.08 1013.87 1015.40 1015.49 1016.10 1015.62 1015.68 1015.64 1015.70 1015.68 1015.95 1016.05 1015.96 1016.12 1016.10 1016.19 1016.19 1016.13 1016.11 1016.09 1015.73 1015.35 1014.73 1014.10 1013.95 1013.87 1013.35 1013.09 1012.57 1012.43 1012.25 1011.94 1011.87 1011.81 1011.57 1011.20 1011.16 1011.03 1010.97 1010.91 1010.69
1011.65 1012.51 1012.85 1012.56 1014.62 1015.42 1015.39 1015.25 1015.51 1015.35 1015.30 1015.17 1015.26 1015.45 1015.55 1015.58 1015.51 1015.51 1015.62 1015.46 1015.70 1015.60 1015.21 1014.85 1014.19 1013.75 1013.48 1013.46 1013.35 1012.95 1012.60 1012.04 1011.67 1011.77 1011.06 1010.62 1010.20 1009.58 1009.11 1009.28 1009.04 1008.99 1008.89
1010.81 1011.57 1011.34 1011.38 1013.04 1013.77 1013.64 1014.14 1014.69 1014.77 1014.84 1014.65 1014.81 1014.79 1014.98 1015.25 1015.39 1015.69 1015.71 1015.78 1015.74 1015.49 1015.42 1015.11 1014.52 1013.83 1013.79 1013.44 1013.20 1013.12 1012.83 1012.35 1011.57 1011.58 1011.21 1010.59 1010.20 1008.92 1008.40 1007.99 1007.57 1007.49 1007.59
1010.17 1010.49 1010.89 1010.85 1012.26 1013.34 1013.09 1013.40 1014.17 1014.40 1014.22 1014.04 1014.13 1014.36 1014.64 1014.56 1014.45 1014.76 1015.03 1015.29 1015.29 1015.12 1015.10 1015.15 1014.44 1014.13 1013.90 1013.51 1013.58 1013.50 1013.09 1012.71 1011.98 1011.39 1011.36 1009.75 1009.07 1007.77 1007.48 1006.60 1006.30 1006.38 1006.12
1009.74 1010.26 1010.97 1011.32 1011.94 1012.40 1012.83 1012.68 1013.39 1013.74 1013.55 1013.54 1013.54 1013.38 1013.66 1013.90 1014.18 1014.31 1014.31 1014.28 1014.15 1013.96 1014.18 1014.16 1014.12 1013.84 1013.96 1013.71 1013.94 1013.70 1013.16 1012.61 1012.44 1011.74 1010.50 1008.48 1007.67 1006.84 1006.30 1005.74 1005.36 1005.17 1004.77
1009.16 1009.49 1010.18 1010.68 1011.29 1011.94 1012.58 1012.51 1012.87 1012.73 1012.71 1013.03 1013.39 1013.66 1013.77 1013.51 1013.64 1014.45 1014.24 1014.14 1013.69 1013.34 1013.20 1013.81 1014.16 1014.17 1014.05 1013.67 1013.67 1013.42 1012.30 1011.72 1011.18 1010.63 1009.39 1007.85 1007.45 1006.52 1006.10 1004.48 1003.90 1003.39 1002.92
1008.26 1008.72 1009.26 1010.02 1010.55 1011.33 1011.69 1012.06 1012.58 1012.56 1012.65 1012.93 1013.22 1013.22 1013.37 1013.51 1013.96 1014.30 1014.35 1013.89 1013.37 1012.94 1012.78 1013.18 1013.24 1013.08 1012.73 1011.97 1012.22 1012.28 1011.74 1011.22 1010.05 1008.53 1007.99 1007.78 1006.93 1006.86 1004.78 1004.00 1002.66 1001.67 1001.16
Wind_Speed
3 4 3 5 4 3 1 4 3 4 4 5 5 5 6 4 5 5 5 10 2 2 6 10 13 13 13 14 14 14 13 13 12 12 12 11 12 11 10 10 10 9 8
4 4 4 5 6 4 2 3 3 5 5 5 4 4 6 6 4 5 5 2 6 2 1 8 10 13 14 15 14 14 15 14 13 15 12 12 11 11 12 12 12 12 11
5 7 4 5 5 3 5 5 3 4 5 3 4 5 6 5 6 5 5 4 4 12 7 4 7 10 13 15 15 15 13 13 14 15 14 12 12 13 13 13 13 13 11
8 7 5 5 4 5 4 4 5 4 3 5 5 6 5 5 4 5 5 4 3 6 12 10 4 5 11 14 15 14 14 14 14 13 15 14 14 13 14 14 13 13 13
9 8 5 5 5 3 6 3 4 3 5 5 6 4 3 4 3 2 2 1 4 3 5 13 7 5 6 12 13 14 13 14 13 15 15 16 16 15 15 15 14 14 14
7 6 6 5 5 5 5 2 3 5 5 5 6 4 3 0 2 2 3 3 4 3 5 4 4 7 3 1 8 10 12 13 13 15 16 15 16 16 17 17 16 15 15
7 6 5 6 6 5 2 2 5 4 6 2 7 3 4 4 2 1 3 5 5 4 5 4 4 4 6 7 12 9 6 6 13 13 15 16 16 16 16 17 17 17 17
8 7 6 5 3 2 3 3 3 5 3 3 5 4 2 6 5 3 3 4 5 4 5 5 5 5 4 5 8 11 11 9 6 5 6 7 14 16 17 17 18 18 18
7 6 6 4 3 5 3 4 3 3 4 1 3 5 3 1 2 5 5 5 3 5 4 5 6 6 5 5 1 8 11 9 8 8 8 7 7 6 13 17 17 18 19
6 6 6 5 4 4 2 4 2 4 4 2 2 2 3 7 4 2 5 4 2 4 4 3 4 6 4 4 9 9 9 9 8 7 7 8 8 10 11 10 13 17 18
7 8 7 6 5 6 4 2 3 3 2 5 2 1 1 1 1 4 4 0 2 3 1 0 2 1 4 2 3 7 4 6 7 8 8 8 8 10 11 13 14 13 16
8 9 8 7 6 5 5 4 3 4 4 4 4 2 2 2 1 3 5 3 3 1 2 2 2 1 2 1 1 2 2 2 3 5 7 8 9 9 10 12 15 16 17
7 9 9 8 8 7 5 4 4 3 4 4 4 3 2 4 3 4 4 5 5 4 3 4 2 3 3 3 2 1 5 6 5 6 8 8 8 10 10 11 13 15 18
7 8 10 9 9 8 7 6 6 6 5 5 5 5 5 4 5 5 5 7 7 7 4 6 4 4 4 5 7 6 10 11 6 8 9 10 10 11 12 12 13 14 16
7 9 11 9 9 9 8 8 7 6 5 6 6 7 7 6 5 6 5 6 8 9 8 6 5 3 6 6 5 9 10 7 5 10 12 11 11 12 13 15 15 15 17
11 11 11 12 11 9 9 9 8 8 6 6 6 6 7 8 6 6 6 5 7 8 11 8 7 8 6 7 9 10 12 9 15 16 14 13 13 13 14 15 16 16 17
13 13 12 11 12 10 10 10 9 7 8 8 9 8 9 8 7 7 6 6 6 7 10 10 10 10 9 9 11 10 11 12 12 14 14 13 13 14 16 17 18 18 18
15 10 10 8 8 9 11 11 11 8 9 9 9 9 10 8 8 8 8 7 7 8 10 12 11 11 11 10 11 11 10 11 12 12 8 12 16 18 18 18 19 20 19
9 11 13 8 10 9 11 10 10 10 10 10 10 10 10 9 9 8 8 8 8 7 8 10 9 10 10 11 11 10 10 11 12 18 20 22 21 20 20 20 21 21 20
15 10 9 9 8 6 10 11 12 12 11 10 11 12 11 10 10 9 9 8 9 9 9 11 9 10 5 10 9 10 10 10 12 12 12 15 19 19 21 22 23 22 22
14 13 12 13 5 10 9 10 12 12 12 11 12 11 12 11 6 7 8 8 9 9 9 11 12 11 8 7 12 11 12 12 12 13 13 13 15 14 13 15 19 20 23
17 13 11 13 14 13 17 14 12 12 12 11 11 11 11 7 8 9 9 11 10 10 11 11 11 12 12 12 10 11 12 13 15 12 11 14 14 15 15 15 20 16 14
16 14 11 11 13 14 13 12 12 12 12 12 12 8 9 9 6 9 11 13 12 14 13 10 12 12 13 12 12 11 14 14 15 14 14 16 14 16 15 17 17 18 17
17 14 12 12 13 11 12 13 13 13 13 14 13 12 10 8 9 10 9 10 10 10 11 9 10 11 11 12 12 13 15 14 12 14 16 17 13 15 16 16 24 26 29
14 14 12 14 15 12 13 14 14 14 13 13 5 4 7 5 6 6 7 10 10 10 4 8 9 11 14 16 15 10 11 11 10 13 14 14 13 16 17 17 16 28 30
13 10 14 15 12 14 11 8 9 7 9 4 8 11 5 5 9 7 7 9 9 9 7 10 10 11 15 13 18 13 10 10 14 15 13 12 15 15 13 12 14 13 12
Wind_Direction
229 246 252 295 303 271 263 288 288 326 313 274 310 318 318 314 320 307 318 113 108 314 219 207 208 215 209 212 211 208 206 206 217 223 226 231 232 221 227 237 246 250 254
210 247 233 255 260 271 250 258 299 304 305 304 299 317 312 310 318 304 313 243 137 165 264 213 210 213 219 218 216 217 215 215 216 220 232 232 224 225 229 235 245 251 254
247 264 250 249 262 248 250 234 270 273 286 300 280 274 292 303 303 303 280 295 203 173 179 210 236 221 216 225 222 216 218 225 226 223 221 230 234 234 234 233 238 244 248
227 243 232 254 263 262 270 292 274 300 284 311 314 301 320 300 330 287 258 303 288 290 175 180 198 234 216 219 224 222 225 226 227 230 225 227 235 235 233 238 240 240 244
236 242 243 257 246 271 259 295 293 323 320 308 304 309 314 321 311 25 22 257 69 286 319 146 162 231 231 222 222 224 222 227 233 238 236 232 234 236 239 241 241 240 239
221 228 232 255 247 232 247 333 327 332 307 315 312 312 335 147 8 67 98 93 61 25 32 336 196 150 127 262 237 228 225 222 229 236 237 239 239 239 240 240 240 240 240
234 225 232 214 227 255 329 274 286 261 291 35 270 9 149 199 97 60 11 31 21 36 53 65 6 352 145 124 59 42 21 261 244 236 237 240 241 241 241 241 239 238 238
220 220 247 227 220 229 233 286 262 308 258 53 324 255 265 157 208 64 58 50 17 28 45 71 68 51 357 79 76 63 50 39 17 346 331 277 246 242 242 239 238 239 239
214 224 198 253 173 275 196 207 214 281 311 138 345 316 242 28 325 140 146 75 36 59 62 85 59 68 47 70 152 82 35 33 32 20 358 344 322 317 258 244 239 237 237
208 196 193 186 217 241 146 180 197 298 273 294 185 182 343 1 329 202 157 120 125 119 52 55 96 95 59 77 97 67 44 32 26 17 2 348 329 318 299 281 260 242 237
208 201 191 188 191 225 173 260 216 237 201 300 250 182 52 232 165 312 313 34 180 155 77 108 13 71 120 30 97 99 48 25 11 5 360 350 333 319 305 296 286 270 254
191 205 194 197 197 210 213 228 229 223 283 293 289 273 249 297 311 293 288 278 330 242 293 278 263 249 229 223 150 192 256 270 310 327 331 330 324 318 310 302 292 289 284
199 183 201 200 199 205 210 240 206 229 223 250 227 261 256 269 295 291 290 287 298 285 270 291 253 303 296 266 301 248 280 221 256 285 297 302 304 305 307 304 300 292 284
202 189 199 203 209 198 203 197 210 234 195 220 235 264 288 273 285 281 290 302 296 290 250 217 203 288 272 285 325 252 273 190 224 274 280 282 290 291 294 296 297 296 292
207 194 194 202 208 199 200 193 229 204 227 227 241 249 255 273 264 266 269 285 294 296 298 304 304 240 260 286 324 295 288 278 223 261 264 266 270 275 283 287 287 287 287
210 188 204 189 193 200 198 203 221 211 228 243 242 249 259 273 272 260 275 261 259 286 296 305 301 309 287 292 295 290 284 281 256 240 232 244 252 261 270 274 275 276 278
198 198 195 203 183 195 207 211 238 251 224 236 249 252 256 266 270 278 264 269 270 276 274 293 307 304 313 268 278 279 289 290 281 229 222 231 245 255 260 267 268 269 270
178 192 199 208 207 205 212 218 226 232 226 237 240 247 250 248 238 253 262 261 293 296 287 284 295 295 289 296 279 280 274 288 286 282 229 231 239 248 253 253 256 261 261
190 176 177 176 212 216 224 229 236 235 237 242 245 245 252 262 260 275 296 292 284 279 263 264 275 276 288 284 279 265 272 276 265 250 238 241 243 245 248 246 245 245 246
182 164 180 142 228 225 237 235 233 234 235 234 243 250 255 255 262 265 259 266 268 272 276 267 260 274 278 294 284 274 296 297 297 295 290 264 264 250 235 236 240 244 242
170 158 169 133 189 234 233 233 242 237 232 236 246 249 248 244 257 247 264 274 293 275 280 290 288 301 289 301 310 307 295 299 301 295 288 296 291 279 277 248 257 241 236
179 181 168 153 184 218 216 214 222 235 236 241 252 259 261 209 239 245 242 255 271 268 277 285 290 292 292 284 301 305 308 299 297 293 304 293 289 279 283 283 276 261 251
188 192 192 174 207 226 207 201 205 237 253 248 251 264 266 274 201 256 223 221 233 229 233 272 278 285 293 299 309 295 294 297 288 296 295 283 281 282 284 280 285 275 255
194 194 202 207 218 223 213 179 177 221 237 246 242 232 226 244 262 248 254 269 270 272 239 234 271 292 295 307 302 295 288 285 277 267 256 275 292 292 300 289 284 282 273
191 192 205 217 220 227 190 182 191 227 232 239 245 260 245 239 158 158 253 268 279 279 210 189 227 251 253 256 257 285 285 291 292 287 280 281 305 297 297 291 285 276 268
186 188 203 216 201 207 194 230 198 242 249 242 226 245 237 282 141 162 252 270 272 276 301 304 284 259 248 260 232 236 257 264 273 294 294 290 304 307 297 293 283 282 281